Terminal Aerodrome Forecast
Issued by NWS Houston/Galveston TX

Home | Current Version | Previous Version | Text Only | Print | Product List | Glossary On
Versions: 1 2 3 4 5 6 7 8 9 10 11 12 13 14 15 16 17 18 19 20 21 22 23 24 25 26 27 28 29 30 31 32 33 34 35 36 37 38 39 40 41 42 43 44 45 46 47 48 49 50
000
FTUS44 KHGX 302102 AAA
TAFHOU
TAF AMD
KHOU 302102Z 3021/3118 11005KT P6SM FEW030 SCT150 BKN250
     FM310100 16005KT P6SM FEW025 SCT250
     FM310900 15002KT P6SM SCT015 SCT250
      TEMPO 3109/3112 6SM BR BKN015
     FM311500 16005KT P6SM SCT030=

USA.gov is the U.S. government's official web portal to all federal, state and local government web resources and services.